Location: Ostrava
(49.8330°N, 18.2830°E)
Time: 23:57:28
(UTC+02:00)

Envisat - Pass Details

Date: 27 January 2022
Orbit: 764 x 765 km, 98.2° (Epoch: 21 May)

Event Time Altitude Azimuth Distance (km) Brightness Sun altitude
Rises 06:17:42 0° 4° (N) 3,243 6.1 -11.2°
Reaches altitude 10° 06:20:30 10° 349° (N) 2,312 5.2 -10.7°
Maximum altitude 06:24:13 21° 302° (WNW) 1,678 4.2 -10.2°
Drops below altitude 10° 06:27:55 10° 255° (WSW) 2,303 5.0 -9.6°
Sets 06:30:43 0° 239° (WSW) 3,225 5.8 -9.2°
